Starlink 11666

operational
NORAD ID: 63667 Int'l Des: 2025-085 Owner: SPXS Country: US Constellation: starlink
LEOCIRCULAR

关于 Starlink 11666

正在加载描述...

实时位置

正在加载3D地球...

即将过境

高度历史

Altitude vs Time

uPlot chart will show altitude changes over time

两行轨道根数

1 63667U 25085D 26036.23811995 .00287549 00000-0 21655-2 0 9999
2 63667 43.0009 114.4192 0002034 303.5033 56.5640 15.70865276 45040
Epoch: Feb 5, 2026 • Age: 11 hours

当前状态

高度 358.1 km
速度 7.70 km/s
星下点 -17.14°S, 72.42°E
发射日期 Apr 28, 2025
运行时间 0.7 years
类型 internet

技术详情

分类 Payload
质量 960.00 kg
干质量 910.00 kg
总质量 960.00 kg
长度 0.30 m
直径 4.10 m
跨度 29.00 m
形状 Box + pan
制造商 SPXS
平台类型 Starlink V2MD
阶段状态 In Orbit
所有者/国家 SPXS/US

大型星座

Loading constellations...